This demonstration page uses our WeatherBlox Daily Observations layout. Learn more.

Left ArrowRight Arrow

44.89941, -97.11507

Hourly Observations for October 26, 2021

Temp ( °F °C ) Dew Point ( °F °C ) Humidity (%) Winds ( mph kmh ) Pressure ( in mb ) Visibility ( mi km ) Precip ( " mm )
12:53 am 00:53 Clear 43 6.1 35 1.7 74 74 SSE 17 28 29.99 1016 10 16 N/A
1:53 am 01:53 Clear 42 5.6 34 1.1 73 73 SE 14 22 29.96 1015 10 16 N/A
2:53 am 02:53 Clear 42 5.6 35 1.7 76 76 SSE 18 30 29.95 1014 10 16 N/A
3:53 am 03:53 Clear 41 5 36 2.2 82 82 SSE 15 24 29.93 1014 10 16 N/A
4:53 am 04:53 Clear 41 5 36 2.2 82 82 SE 18 30 29.91 1013 10 16 N/A
5:53 am 05:53 Clear 41 5 37 2.8 86 86 SE 17 28 29.88 1012 10 16 N/A
6:53 am 06:53 Clear 41 5 37 2.8 86 86 SE 16 26 29.88 1012 10 16 N/A
7:53 am 07:53 Clear 41 5 37 2.8 86 86 SE 22 35 29.86 1011 10 16 N/A
8:53 am 08:53 Sunny 42 5.6 38 3.3 85 85 SSE 21 33 29.83 1010 10 16 N/A
9:53 am 09:53 Mostly Cloudy 45 7.2 39 3.9 80 80 SE 23 37 29.82 1010 10 16 N/A
10:53 am 10:53 Cloudy 46 7.8 37 2.8 71 71 SE 17 28 29.78 1009 10 16 N/A
11:53 am 11:53 Cloudy 48 8.9 36 2.2 63 63 SE 20 31 29.77 1008 10 16 N/A
12:53 pm 12:53 Cloudy 51 10.6 36 2.2 56 56 SE 22 35 29.72 1007 10 16 N/A
1:53 pm 13:53 Cloudy 52 11.1 36 2.2 55 55 SE 20 31 29.70 1006 10 16 N/A
2:53 pm 14:53 Cloudy 53 11.7 38 3.3 57 57 SE 20 31 29.68 1005 10 16 N/A
3:53 pm 15:53 Cloudy 55 12.8 39 3.9 55 55 SE 22 35 29.67 1005 10 16 N/A
4:53 pm 16:53 Cloudy 54 12.2 38 3.3 55 55 SE 20 31 29.65 1004 10 16 N/A
5:53 pm 17:53 Cloudy 53 11.7 37 2.8 55 55 SE 17 28 29.67 1005 10 16 N/A
6:53 pm 18:53 Cloudy 53 11.7 36 2.2 52 52 SSE 15 24 29.70 1006 10 16 N/A
7:53 pm 19:53 Cloudy 52 11.1 37 2.8 57 57 SSE 15 24 29.71 1006 10 16 N/A
8:53 pm 20:53 Cloudy 52 11.1 38 3.3 59 59 SSE 21 33 29.71 1006 10 16 N/A
9:28 pm 21:28 Cloudy 51 10.6 39 3.9 64 64 SSE 16 26 29.70 1006 10 16 N/A
9:53 pm 21:53 Cloudy 51 10.6 39 3.9 64 64 SE 17 28 29.70 1006 10 16 N/A
10:53 pm 22:53 Cloudy 51 10.6 40 4.4 66 66 SSE 18 30 29.68 1005 10 16 N/A
11:27 pm 23:27 Cloudy 50 10 41 5 71 71 SSE 20 31 29.68 1005 10 16 N/A
11:53 pm 23:53 Cloudy 50 10 42 5.6 74 74 SSE 16 26 29.69 1005 10 16 N/A

Powered by AerisWeather